Information on these data can be found in provided Readme document
Contact Info: Zachary Fasnacht (zachary.fasnacht@ssaihq.com); Nickolay Krotkov (nickolay.a.krotkov@nasa.gov); Lok Lamsal (lok.lamsal@nasa.gov)

FillValue: -999.
ScaleFactor: 1e15
Units: molecules/cm^2

Date(yyyy-mm-dd),City,Country,LonCenter,LatCenter,BoundingCoordinates,Median,Q1,Q3,Mean,Baseline_Median,Baseline_Q1,Baseline_Q3,Baseline_Mean,NumGoodSamples,NumTotalSamples
2015-01-01,Busan,SouthKorea,129.067,35.1667,[128.567 34.6667 129.567 35.6667],9.494,6.709,12.873,10.361,8.665,5.904,11.558,9.418,215.0,565.0
2015-01-02,Busan,SouthKorea,129.067,35.1667,[128.567 34.6667 129.567 35.6667],9.032,6.673,13.123,10.393,8.583,5.886,11.799,9.454,187.0,569.0
2015-01-03,Busan,SouthKorea,129.067,35.1667,[128.567 34.6667 129.567 35.6667],9.032,6.709,13.047,10.318,8.295,5.952,11.49,9.228,216.0,556.0
2015-01-04,Busan,SouthKorea,129.067,35.1667,[128.567 34.6667 129.567 35.6667],9.246,6.727,13.047,10.436,8.228,5.909,11.313,9.212,191.0,560.0
2015-01-05,Busan,SouthKorea,129.067,35.1667,[128.567 34.6667 129.567 35.6667],8.672,6.709,11.956,9.839,8.097,5.928,11.132,9.088,215.0,553.0
2015-01-06,Busan,SouthKorea,129.067,35.1667,[128.567 34.6667 129.567 35.6667],8.342,6.458,11.119,9.43,8.169,5.956,11.217,9.12,197.0,569.0
2015-01-07,Busan,SouthKorea,129.067,35.1667,[128.567 34.6667 129.567 35.6667],8.137,6.085,10.084,8.61,8.075,5.816,11.172,9.033,167.0,564.0
2015-01-08,Busan,SouthKorea,129.067,35.1667,[128.567 34.6667 129.567 35.6667],8.137,6.085,10.084,8.61,8.008,5.839,11.122,8.987,167.0,571.0
2015-01-09,Busan,SouthKorea,129.067,35.1667,[128.567 34.6667 129.567 35.6667],8.356,6.709,10.383,9.003,8.225,6.174,11.318,9.219,145.0,571.0
2015-01-10,Busan,SouthKorea,129.067,35.1667,[128.567 34.6667 129.567 35.6667],8.356,6.709,10.383,9.003,8.225,6.201,11.002,9.135,145.0,530.0
2015-01-11,Busan,SouthKorea,129.067,35.1667,[128.567 34.6667 129.567 35.6667],8.672,6.757,11.816,9.588,8.207,6.107,11.624,9.386,107.0,526.0
2015-01-12,Busan,SouthKorea,129.067,35.1667,[128.567 34.6667 129.567 35.6667],9.074,7.466,10.847,9.512,8.255,6.277,11.172,9.387,136.0,524.0
2015-01-13,Busan,SouthKorea,129.067,35.1667,[128.567 34.6667 129.567 35.6667],9.074,7.466,10.847,9.512,8.605,6.305,12.219,9.908,136.0,535.0
2015-01-14,Busan,SouthKorea,129.067,35.1667,[128.567 34.6667 129.567 35.6667],8.999,7.58,10.711,9.471,8.805,6.506,12.107,9.939,106.0,529.0
2015-01-15,Busan,SouthKorea,129.067,35.1667,[128.567 34.6667 129.567 35.6667],8.999,7.58,10.711,9.471,8.954,6.581,12.373,10.089,106.0,535.0
2015-01-16,Busan,SouthKorea,129.067,35.1667,[128.567 34.6667 129.567 35.6667],8.722,7.35,9.653,8.758,9.031,6.8,12.402,10.121,82.0,537.0
2015-01-17,Busan,SouthKorea,129.067,35.1667,[128.567 34.6667 129.567 35.6667],8.993,7.466,10.711,9.5,9.136,6.622,11.804,10.031,106.0,535.0
2015-01-18,Busan,SouthKorea,129.067,35.1667,[128.567 34.6667 129.567 35.6667],8.858,7.483,10.585,9.415,9.255,6.628,12.497,10.101,77.0,539.0
2015-01-19,Busan,SouthKorea,129.067,35.1667,[128.567 34.6667 129.567 35.6667],8.858,7.483,10.585,9.415,9.607,7.009,12.746,10.276,77.0,527.0
2015-01-20,Busan,SouthKorea,129.067,35.1667,[128.567 34.6667 129.567 35.6667],9.772,8.722,11.353,10.734,9.55,7.03,12.773,10.64,53.0,534.0
2015-01-21,Busan,SouthKorea,129.067,35.1667,[128.567 34.6667 129.567 35.6667],9.359,8.212,11.224,10.146,9.584,7.113,12.55,10.533,65.0,529.0
2015-01-22,Busan,SouthKorea,129.067,35.1667,[128.567 34.6667 129.567 35.6667],9.359,8.212,11.224,10.146,9.49,7.117,12.178,10.435,65.0,543.0
2015-01-23,Busan,SouthKorea,129.067,35.1667,[128.567 34.6667 129.567 35.6667],9.653,7.644,12.721,10.865,9.647,7.277,12.836,10.954,88.0,540.0
2015-01-24,Busan,SouthKorea,129.067,35.1667,[128.567 34.6667 129.567 35.6667],9.653,7.644,12.666,10.667,10.028,7.676,13.284,11.251,118.0,547.0
2015-01-25,Busan,SouthKorea,129.067,35.1667,[128.567 34.6667 129.567 35.6667],9.653,7.644,12.666,10.667,9.818,7.576,13.296,11.173,118.0,574.0
2015-01-26,Busan,SouthKorea,129.067,35.1667,[128.567 34.6667 129.567 35.6667],10.518,7.816,15.486,12.436,9.736,7.28,12.857,10.954,139.0,563.0
2015-01-27,Busan,SouthKorea,129.067,35.1667,[128.567 34.6667 129.567 35.6667],12.206,7.483,17.953,13.808,9.851,7.197,12.889,10.883,110.0,560.0
2015-01-28,Busan,SouthKorea,129.067,35.1667,[128.567 34.6667 129.567 35.6667],11.903,7.483,17.337,13.521,9.444,6.778,12.386,10.341,119.0,557.0
2015-01-29,Busan,SouthKorea,129.067,35.1667,[128.567 34.6667 129.567 35.6667],11.903,7.483,17.337,13.521,9.258,6.738,12.151,10.235,119.0,566.0
2015-01-30,Busan,SouthKorea,129.067,35.1667,[128.567 34.6667 129.567 35.6667],10.518,7.994,14.597,12.37,8.896,6.869,11.98,10.188,149.0,560.0
2015-01-31,Busan,SouthKorea,129.067,35.1667,[128.567 34.6667 129.567 35.6667],10.742,7.994,15.121,12.541,8.853,6.87,11.868,10.302,178.0,566.0
2015-02-01,Busan,SouthKorea,129.067,35.1667,[128.567 34.6667 129.567 35.6667],10.244,7.816,13.604,12.271,9.168,6.971,12.649,10.782,157.0,568.0
2015-02-02,Busan,SouthKorea,129.067,35.1667,[128.567 34.6667 129.567 35.6667],10.228,7.816,12.734,11.914,8.712,6.777,12.076,10.385,183.0,563.0
2015-02-03,Busan,SouthKorea,129.067,35.1667,[128.567 34.6667 129.567 35.6667],10.228,7.816,12.734,11.914,8.705,6.559,11.815,10.286,183.0,569.0
2015-02-04,Busan,SouthKorea,129.067,35.1667,[128.567 34.6667 129.567 35.6667],10.366,7.994,15.49,12.995,8.592,6.626,12.023,10.123,199.0,555.0
2015-02-05,Busan,SouthKorea,129.067,35.1667,[128.567 34.6667 129.567 35.6667],10.764,8.241,16.31,13.479,8.545,6.529,11.923,10.04,187.0,558.0
2015-02-06,Busan,SouthKorea,129.067,35.1667,[128.567 34.6667 129.567 35.6667],10.244,7.994,13.057,12.414,8.594,6.519,11.529,10.114,220.0,553.0
2015-02-07,Busan,SouthKorea,129.067,35.1667,[128.567 34.6667 129.567 35.6667],10.239,8.241,11.987,12.388,8.289,6.516,11.066,9.82,197.0,566.0
2015-02-08,Busan,SouthKorea,129.067,35.1667,[128.567 34.6667 129.567 35.6667],10.239,8.36,11.987,12.67,8.254,6.51,11.063,9.83,167.0,563.0
2015-02-09,Busan,SouthKorea,129.067,35.1667,[128.567 34.6667 129.567 35.6667],10.239,8.36,11.987,12.67,8.462,6.341,10.814,9.829,167.0,573.0
2015-02-10,Busan,SouthKorea,129.067,35.1667,[128.567 34.6667 129.567 35.6667],9.995,8.236,11.644,11.265,8.059,6.026,10.727,9.364,146.0,573.0
2015-02-11,Busan,SouthKorea,129.067,35.1667,[128.567 34.6667 129.567 35.6667],9.995,8.236,11.644,11.265,8.016,6.06,10.404,9.328,146.0,532.0
2015-02-12,Busan,SouthKorea,129.067,35.1667,[128.567 34.6667 129.567 35.6667],10.092,8.236,11.644,11.365,8.165,6.178,10.844,9.663,137.0,529.0
2015-02-13,Busan,SouthKorea,129.067,35.1667,[128.567 34.6667 129.567 35.6667],9.262,6.399,11.262,9.996,8.064,5.778,10.908,9.452,175.0,526.0
2015-02-14,Busan,SouthKorea,129.067,35.1667,[128.567 34.6667 129.567 35.6667],8.481,5.562,11.444,10.009,7.884,5.542,10.883,9.401,145.0,538.0
2015-02-15,Busan,SouthKorea,129.067,35.1667,[128.567 34.6667 129.567 35.6667],8.001,5.079,10.452,9.163,7.755,5.338,11.125,9.15,122.0,532.0
2015-02-16,Busan,SouthKorea,129.067,35.1667,[128.567 34.6667 129.567 35.6667],7.75,5.122,10.452,9.059,7.462,5.261,11.242,8.957,150.0,538.0
2015-02-17,Busan,SouthKorea,129.067,35.1667,[128.567 34.6667 129.567 35.6667],7.625,4.873,10.47,9.085,8.021,5.501,11.117,9.238,127.0,542.0
2015-02-18,Busan,SouthKorea,129.067,35.1667,[128.567 34.6667 129.567 35.6667],7.625,4.873,10.47,9.085,8.165,5.889,11.453,9.522,127.0,536.0
2015-02-19,Busan,SouthKorea,129.067,35.1667,[128.567 34.6667 129.567 35.6667],6.424,4.583,9.478,7.099,8.29,5.842,11.657,9.509,111.0,543.0
2015-02-20,Busan,SouthKorea,129.067,35.1667,[128.567 34.6667 129.567 35.6667],6.751,4.817,9.814,7.557,8.373,5.96,11.89,9.683,121.0,531.0
2015-02-21,Busan,SouthKorea,129.067,35.1667,[128.567 34.6667 129.567 35.6667],5.654,4.47,8.001,6.882,8.315,6.003,11.74,9.692,88.0,535.0
2015-02-22,Busan,SouthKorea,129.067,35.1667,[128.567 34.6667 129.567 35.6667],5.122,4.091,6.576,6.136,8.141,5.788,11.508,9.397,119.0,529.0
2015-02-23,Busan,SouthKorea,129.067,35.1667,[128.567 34.6667 129.567 35.6667],5.122,4.091,6.576,6.136,8.143,5.896,11.141,9.351,119.0,542.0
2015-02-24,Busan,SouthKorea,129.067,35.1667,[128.567 34.6667 129.567 35.6667],5.122,4.091,6.576,6.136,8.158,5.918,11.152,9.38,119.0,537.0
2015-02-25,Busan,SouthKorea,129.067,35.1667,[128.567 34.6667 129.567 35.6667],5.122,4.104,6.665,6.112,8.476,6.089,11.571,9.75,148.0,546.0
2015-02-26,Busan,SouthKorea,129.067,35.1667,[128.567 34.6667 129.567 35.6667],5.122,4.104,6.665,6.112,8.598,6.188,11.754,9.759,148.0,575.0
2015-02-27,Busan,SouthKorea,129.067,35.1667,[128.567 34.6667 129.567 35.6667],5.188,4.133,7.461,6.515,8.194,5.836,10.686,9.391,165.0,564.0
2015-02-28,Busan,SouthKorea,129.067,35.1667,[128.567 34.6667 129.567 35.6667],5.162,4.091,7.0,6.774,8.491,6.083,11.157,9.763,127.0,562.0
2015-03-01,Busan,SouthKorea,129.067,35.1667,[128.567 34.6667 129.567 35.6667],5.162,3.975,7.301,6.553,8.284,5.987,11.148,9.564,161.0,559.0
2015-03-02,Busan,SouthKorea,129.067,35.1667,[128.567 34.6667 129.567 35.6667],5.49,3.975,7.372,6.709,8.423,5.963,11.181,9.622,155.0,569.0
2015-03-03,Busan,SouthKorea,129.067,35.1667,[128.567 34.6667 129.567 35.6667],6.373,4.236,8.173,6.979,8.321,5.906,11.024,9.265,154.0,564.0
2015-03-04,Busan,SouthKorea,129.067,35.1667,[128.567 34.6667 129.567 35.6667],6.424,4.595,8.425,7.307,8.567,6.121,11.536,9.622,181.0,570.0
2015-03-05,Busan,SouthKorea,129.067,35.1667,[128.567 34.6667 129.567 35.6667],6.424,4.599,8.425,7.303,8.277,5.511,11.33,9.386,184.0,569.0
2015-03-06,Busan,SouthKorea,129.067,35.1667,[128.567 34.6667 129.567 35.6667],6.424,4.599,8.425,7.316,8.079,6.013,10.99,9.275,185.0,563.0
2015-03-07,Busan,SouthKorea,129.067,35.1667,[128.567 34.6667 129.567 35.6667],6.373,4.474,8.173,6.985,8.203,6.082,10.986,9.248,175.0,569.0
2015-03-08,Busan,SouthKorea,129.067,35.1667,[128.567 34.6667 129.567 35.6667],6.689,4.911,8.564,7.599,8.22,6.124,10.917,9.264,202.0,556.0
2015-03-09,Busan,SouthKorea,129.067,35.1667,[128.567 34.6667 129.567 35.6667],7.626,6.142,9.894,8.403,8.618,6.517,11.427,9.627,171.0,562.0
2015-03-10,Busan,SouthKorea,129.067,35.1667,[128.567 34.6667 129.567 35.6667],7.879,6.081,11.375,9.201,8.323,6.452,11.608,9.706,202.0,557.0
2015-03-11,Busan,SouthKorea,129.067,35.1667,[128.567 34.6667 129.567 35.6667],7.879,6.081,11.375,9.201,8.509,6.504,12.16,10.08,202.0,571.0
2015-03-12,Busan,SouthKorea,129.067,35.1667,[128.567 34.6667 129.567 35.6667],8.043,6.081,12.245,9.26,8.412,6.606,11.924,9.921,186.0,566.0
2015-03-13,Busan,SouthKorea,129.067,35.1667,[128.567 34.6667 129.567 35.6667],8.092,6.081,12.548,9.518,8.362,6.547,11.885,9.872,215.0,574.0
2015-03-14,Busan,SouthKorea,129.067,35.1667,[128.567 34.6667 129.567 35.6667],8.046,6.081,12.245,9.384,8.44,6.537,12.057,9.814,198.0,572.0
2015-03-15,Busan,SouthKorea,129.067,35.1667,[128.567 34.6667 129.567 35.6667],8.046,6.081,12.245,9.384,8.605,6.622,12.187,9.884,198.0,532.0
2015-03-16,Busan,SouthKorea,129.067,35.1667,[128.567 34.6667 129.567 35.6667],8.582,6.452,13.077,10.309,8.892,6.798,13.004,10.337,164.0,529.0
2015-03-17,Busan,SouthKorea,129.067,35.1667,[128.567 34.6667 129.567 35.6667],8.927,6.689,12.339,10.104,8.944,6.721,12.607,10.198,202.0,527.0
2015-03-18,Busan,SouthKorea,129.067,35.1667,[128.567 34.6667 129.567 35.6667],9.697,6.684,13.688,10.757,8.786,6.529,12.363,9.952,172.0,539.0
2015-03-19,Busan,SouthKorea,129.067,35.1667,[128.567 34.6667 129.567 35.6667],10.21,7.256,14.289,11.149,8.659,6.52,12.317,9.907,174.0,535.0
2015-03-20,Busan,SouthKorea,129.067,35.1667,[128.567 34.6667 129.567 35.6667],10.382,7.464,14.345,11.472,8.808,6.666,12.814,10.156,202.0,544.0
2015-03-21,Busan,SouthKorea,129.067,35.1667,[128.567 34.6667 129.567 35.6667],10.382,7.427,14.345,11.467,8.739,6.49,12.862,10.136,201.0,545.0
2015-03-22,Busan,SouthKorea,129.067,35.1667,[128.567 34.6667 129.567 35.6667],10.21,7.334,14.289,11.273,8.674,6.532,12.783,10.127,226.0,540.0
2015-03-23,Busan,SouthKorea,129.067,35.1667,[128.567 34.6667 129.567 35.6667],10.171,7.346,14.087,11.167,8.593,6.42,12.519,9.89,199.0,542.0
2015-03-24,Busan,SouthKorea,129.067,35.1667,[128.567 34.6667 129.567 35.6667],10.171,7.346,14.087,11.167,8.513,6.269,12.445,9.717,199.0,531.0
2015-03-25,Busan,SouthKorea,129.067,35.1667,[128.567 34.6667 129.567 35.6667],10.042,7.781,13.042,10.94,8.405,6.307,12.325,9.71,168.0,534.0
2015-03-26,Busan,SouthKorea,129.067,35.1667,[128.567 34.6667 129.567 35.6667],10.042,7.781,13.042,10.936,8.206,6.136,11.88,9.337,169.0,531.0
2015-03-27,Busan,SouthKorea,129.067,35.1667,[128.567 34.6667 129.567 35.6667],10.21,8.159,13.75,11.403,7.873,5.757,11.376,9.016,156.0,541.0
2015-03-28,Busan,SouthKorea,129.067,35.1667,[128.567 34.6667 129.567 35.6667],10.171,8.159,13.75,11.213,7.709,5.64,11.119,8.812,127.0,541.0
2015-03-29,Busan,SouthKorea,129.067,35.1667,[128.567 34.6667 129.567 35.6667],10.171,8.159,13.75,11.213,7.785,5.62,11.463,8.948,127.0,551.0
2015-03-30,Busan,SouthKorea,129.067,35.1667,[128.567 34.6667 129.567 35.6667],10.171,8.159,13.75,11.213,7.454,5.313,10.593,8.487,127.0,579.0
2015-03-31,Busan,SouthKorea,129.067,35.1667,[128.567 34.6667 129.567 35.6667],10.171,8.159,13.75,11.213,7.39,5.357,9.806,8.096,127.0,566.0
2015-04-01,Busan,SouthKorea,129.067,35.1667,[128.567 34.6667 129.567 35.6667],12.12,9.075,16.125,12.324,7.454,5.387,10.013,8.078,89.0,562.0
2015-04-02,Busan,SouthKorea,129.067,35.1667,[128.567 34.6667 129.567 35.6667],9.94,5.123,13.75,10.157,7.553,4.841,10.429,8.094,113.0,558.0
2015-04-03,Busan,SouthKorea,129.067,35.1667,[128.567 34.6667 129.567 35.6667],6.993,3.093,10.809,8.205,6.469,3.968,9.338,7.2,81.0,568.0
2015-04-04,Busan,SouthKorea,129.067,35.1667,[128.567 34.6667 129.567 35.6667],6.304,3.093,9.614,6.628,6.196,3.824,8.863,6.681,82.0,567.0
2015-04-05,Busan,SouthKorea,129.067,35.1667,[128.567 34.6667 129.567 35.6667],6.304,3.093,9.614,6.585,6.294,3.421,8.9,6.552,85.0,575.0
2015-04-06,Busan,SouthKorea,129.067,35.1667,[128.567 34.6667 129.567 35.6667],5.67,2.585,9.064,6.142,5.63,3.42,8.345,6.144,60.0,575.0
2015-04-07,Busan,SouthKorea,129.067,35.1667,[128.567 34.6667 129.567 35.6667],5.67,2.585,9.614,6.565,5.536,3.251,8.011,5.959,87.0,573.0
2015-04-08,Busan,SouthKorea,129.067,35.1667,[128.567 34.6667 129.567 35.6667],5.72,2.981,9.614,6.604,5.837,3.668,8.436,6.296,107.0,571.0
2015-04-09,Busan,SouthKorea,129.067,35.1667,[128.567 34.6667 129.567 35.6667],5.758,2.981,9.614,6.602,5.882,3.797,8.455,6.236,108.0,562.0
2015-04-10,Busan,SouthKorea,129.067,35.1667,[128.567 34.6667 129.567 35.6667],5.758,2.981,9.614,6.601,5.982,3.737,8.51,6.339,107.0,564.0
2015-04-11,Busan,SouthKorea,129.067,35.1667,[128.567 34.6667 129.567 35.6667],5.67,3.129,9.064,6.348,6.18,3.712,8.509,6.418,122.0,561.0
2015-04-12,Busan,SouthKorea,129.067,35.1667,[128.567 34.6667 129.567 35.6667],5.67,3.129,9.064,6.348,6.36,3.859,8.675,6.524,122.0,568.0
2015-04-13,Busan,SouthKorea,129.067,35.1667,[128.567 34.6667 129.567 35.6667],5.67,3.129,9.064,6.348,6.162,3.734,8.587,6.425,122.0,563.0
2015-04-14,Busan,SouthKorea,129.067,35.1667,[128.567 34.6667 129.567 35.6667],5.758,3.176,9.352,6.812,5.878,3.554,8.665,6.483,152.0,573.0
2015-04-15,Busan,SouthKorea,129.067,35.1667,[128.567 34.6667 129.567 35.6667],6.304,3.684,9.685,7.291,5.888,3.502,8.547,6.428,178.0,575.0
2015-04-16,Busan,SouthKorea,129.067,35.1667,[128.567 34.6667 129.567 35.6667],6.304,3.684,9.685,7.291,5.838,3.5,8.379,6.376,178.0,535.0
2015-04-17,Busan,SouthKorea,129.067,35.1667,[128.567 34.6667 129.567 35.6667],6.676,3.815,10.307,7.931,5.905,3.55,8.449,6.495,154.0,491.0
2015-04-18,Busan,SouthKorea,129.067,35.1667,[128.567 34.6667 129.567 35.6667],6.464,4.41,9.685,7.579,6.18,3.954,8.54,6.714,193.0,487.0
2015-04-19,Busan,SouthKorea,129.067,35.1667,[128.567 34.6667 129.567 35.6667],6.41,4.41,9.717,7.666,6.211,3.981,8.501,6.727,161.0,492.0
2015-04-20,Busan,SouthKorea,129.067,35.1667,[128.567 34.6667 129.567 35.6667],6.439,4.329,9.651,7.446,6.099,3.959,8.61,6.731,187.0,485.0
2015-04-21,Busan,SouthKorea,129.067,35.1667,[128.567 34.6667 129.567 35.6667],6.32,4.196,9.572,7.252,6.074,3.917,8.533,6.68,207.0,493.0
2015-04-22,Busan,SouthKorea,129.067,35.1667,[128.567 34.6667 129.567 35.6667],6.32,4.236,9.248,7.128,6.033,3.967,8.489,6.637,180.0,497.0
2015-04-23,Busan,SouthKorea,129.067,35.1667,[128.567 34.6667 129.567 35.6667],6.32,4.196,9.248,7.135,5.654,3.702,8.505,6.404,160.0,498.0
2015-04-24,Busan,SouthKorea,129.067,35.1667,[128.567 34.6667 129.567 35.6667],6.19,4.193,9.226,6.976,5.5,3.691,8.37,6.284,181.0,499.0
2015-04-25,Busan,SouthKorea,129.067,35.1667,[128.567 34.6667 129.567 35.6667],6.001,3.87,9.203,6.862,5.163,3.49,8.038,6.091,198.0,487.0
2015-04-26,Busan,SouthKorea,129.067,35.1667,[128.567 34.6667 129.567 35.6667],6.19,4.196,9.248,7.114,5.324,3.578,8.116,6.198,183.0,491.0
2015-04-27,Busan,SouthKorea,129.067,35.1667,[128.567 34.6667 129.567 35.6667],5.638,3.87,8.401,6.571,5.04,3.434,7.807,5.984,218.0,487.0
2015-04-28,Busan,SouthKorea,129.067,35.1667,[128.567 34.6667 129.567 35.6667],5.594,3.823,8.401,6.514,5.114,3.354,7.845,5.903,228.0,501.0
2015-04-29,Busan,SouthKorea,129.067,35.1667,[128.567 34.6667 129.567 35.6667],5.484,3.823,8.002,6.25,5.025,3.289,7.641,5.738,200.0,495.0
2015-04-30,Busan,SouthKorea,129.067,35.1667,[128.567 34.6667 129.567 35.6667],5.245,3.747,7.446,6.174,4.967,3.335,7.434,5.736,204.0,503.0
2015-05-01,Busan,SouthKorea,129.067,35.1667,[128.567 34.6667 129.567 35.6667],5.433,3.741,7.849,6.236,4.951,3.33,7.316,5.663,225.0,533.0
2015-05-02,Busan,SouthKorea,129.067,35.1667,[128.567 34.6667 129.567 35.6667],5.503,3.751,8.041,6.293,4.903,3.292,7.337,5.638,245.0,563.0
2015-05-03,Busan,SouthKorea,129.067,35.1667,[128.567 34.6667 129.567 35.6667],5.093,3.462,8.14,6.211,4.783,3.229,7.272,5.597,206.0,562.0
2015-05-04,Busan,SouthKorea,129.067,35.1667,[128.567 34.6667 129.567 35.6667],5.093,3.462,8.14,6.211,4.677,3.109,7.114,5.488,206.0,588.0
2015-05-05,Busan,SouthKorea,129.067,35.1667,[128.567 34.6667 129.567 35.6667],4.815,3.416,7.428,6.032,4.58,3.103,6.943,5.35,177.0,601.0
2015-05-06,Busan,SouthKorea,129.067,35.1667,[128.567 34.6667 129.567 35.6667],5.121,3.615,7.037,5.949,4.572,3.023,6.809,5.327,188.0,596.0
2015-05-07,Busan,SouthKorea,129.067,35.1667,[128.567 34.6667 129.567 35.6667],5.121,3.615,7.004,5.923,4.698,3.233,6.774,5.345,194.0,601.0
2015-05-08,Busan,SouthKorea,129.067,35.1667,[128.567 34.6667 129.567 35.6667],5.121,3.615,7.004,5.923,4.717,3.298,6.541,5.304,194.0,601.0
2015-05-09,Busan,SouthKorea,129.067,35.1667,[128.567 34.6667 129.567 35.6667],5.126,3.663,7.119,6.066,4.941,3.341,6.723,5.416,190.0,597.0
2015-05-10,Busan,SouthKorea,129.067,35.1667,[128.567 34.6667 129.567 35.6667],5.126,3.66,7.119,6.065,4.858,3.341,6.711,5.416,178.0,602.0
2015-05-11,Busan,SouthKorea,129.067,35.1667,[128.567 34.6667 129.567 35.6667],5.126,3.66,7.119,6.065,4.939,3.358,6.847,5.41,178.0,591.0
2015-05-12,Busan,SouthKorea,129.067,35.1667,[128.567 34.6667 129.567 35.6667],6.187,3.802,7.756,6.639,4.97,3.378,6.882,5.448,143.0,595.0
2015-05-13,Busan,SouthKorea,129.067,35.1667,[128.567 34.6667 129.567 35.6667],6.351,5.057,8.548,7.037,5.155,3.782,7.191,5.722,167.0,591.0
2015-05-14,Busan,SouthKorea,129.067,35.1667,[128.567 34.6667 129.567 35.6667],6.347,4.926,8.306,6.893,4.995,3.667,6.998,5.644,174.0,604.0
2015-05-15,Busan,SouthKorea,129.067,35.1667,[128.567 34.6667 129.567 35.6667],6.267,4.78,7.779,6.375,4.988,3.581,6.911,5.504,173.0,599.0
2015-05-16,Busan,SouthKorea,129.067,35.1667,[128.567 34.6667 129.567 35.6667],6.187,4.744,7.736,6.303,4.862,3.504,6.708,5.416,160.0,607.0
2015-05-17,Busan,SouthKorea,129.067,35.1667,[128.567 34.6667 129.567 35.6667],6.187,4.562,7.736,6.25,4.915,3.508,6.802,5.447,166.0,605.0
2015-05-18,Busan,SouthKorea,129.067,35.1667,[128.567 34.6667 129.567 35.6667],6.187,4.562,7.736,6.25,4.983,3.616,6.923,5.438,166.0,563.0
2015-05-19,Busan,SouthKorea,129.067,35.1667,[128.567 34.6667 129.567 35.6667],6.187,4.562,7.736,6.25,5.002,3.592,6.841,5.408,166.0,532.0
2015-05-20,Busan,SouthKorea,129.067,35.1667,[128.567 34.6667 129.567 35.6667],6.09,4.139,7.462,6.049,5.047,3.585,6.896,5.456,203.0,527.0
2015-05-21,Busan,SouthKorea,129.067,35.1667,[128.567 34.6667 129.567 35.6667],6.165,4.451,7.911,6.267,5.015,3.66,6.922,5.458,172.0,536.0
2015-05-22,Busan,SouthKorea,129.067,35.1667,[128.567 34.6667 129.567 35.6667],6.018,3.939,7.848,6.025,5.063,3.585,7.086,5.494,197.0,530.0
2015-05-23,Busan,SouthKorea,129.067,35.1667,[128.567 34.6667 129.567 35.6667],6.018,3.939,7.848,6.025,4.939,3.506,6.871,5.397,197.0,538.0
2015-05-24,Busan,SouthKorea,129.067,35.1667,[128.567 34.6667 129.567 35.6667],5.829,3.907,7.736,5.927,4.853,3.425,6.708,5.297,199.0,542.0
2015-05-25,Busan,SouthKorea,129.067,35.1667,[128.567 34.6667 129.567 35.6667],5.791,3.939,7.736,5.954,4.868,3.453,6.775,5.328,218.0,538.0
2015-05-26,Busan,SouthKorea,129.067,35.1667,[128.567 34.6667 129.567 35.6667],5.791,3.939,7.736,5.954,4.715,3.331,6.525,5.188,218.0,543.0
2015-05-27,Busan,SouthKorea,129.067,35.1667,[128.567 34.6667 129.567 35.6667],5.597,3.939,7.616,5.88,4.774,3.422,6.437,5.212,245.0,532.0
2015-05-28,Busan,SouthKorea,129.067,35.1667,[128.567 34.6667 129.567 35.6667],5.317,3.687,6.887,5.493,4.597,3.277,6.148,4.999,211.0,536.0
2015-05-29,Busan,SouthKorea,129.067,35.1667,[128.567 34.6667 129.567 35.6667],5.319,3.687,6.887,5.521,4.684,3.29,6.191,5.04,202.0,530.0
2015-05-30,Busan,SouthKorea,129.067,35.1667,[128.567 34.6667 129.567 35.6667],5.051,3.558,6.761,5.313,4.682,3.305,6.152,5.029,183.0,544.0
2015-05-31,Busan,SouthKorea,129.067,35.1667,[128.567 34.6667 129.567 35.6667],4.5,3.199,6.427,5.03,4.601,3.293,6.24,5.017,202.0,537.0
2015-06-01,Busan,SouthKorea,129.067,35.1667,[128.567 34.6667 129.567 35.6667],4.4,3.145,6.33,4.913,4.534,3.251,6.177,4.925,176.0,547.0
2015-06-02,Busan,SouthKorea,129.067,35.1667,[128.567 34.6667 129.567 35.6667],4.5,3.199,6.427,5.06,4.471,3.119,6.039,4.849,197.0,575.0
2015-06-03,Busan,SouthKorea,129.067,35.1667,[128.567 34.6667 129.567 35.6667],4.864,3.303,6.45,5.113,4.522,3.168,6.035,4.84,222.0,564.0
2015-06-04,Busan,SouthKorea,129.067,35.1667,[128.567 34.6667 129.567 35.6667],4.5,3.199,6.45,5.064,4.29,3.041,5.841,4.687,185.0,591.0
2015-06-05,Busan,SouthKorea,129.067,35.1667,[128.567 34.6667 129.567 35.6667],4.593,3.323,6.33,5.041,4.326,3.067,5.84,4.689,215.0,590.0
2015-06-06,Busan,SouthKorea,129.067,35.1667,[128.567 34.6667 129.567 35.6667],4.706,3.442,6.213,5.049,4.374,2.94,5.696,4.56,184.0,601.0
2015-06-07,Busan,SouthKorea,129.067,35.1667,[128.567 34.6667 129.567 35.6667],4.5,3.406,6.213,4.998,4.457,3.139,5.814,4.702,199.0,595.0
2015-06-08,Busan,SouthKorea,129.067,35.1667,[128.567 34.6667 129.567 35.6667],4.438,3.375,6.254,5.015,4.558,3.256,6.004,4.801,182.0,600.0
2015-06-09,Busan,SouthKorea,129.067,35.1667,[128.567 34.6667 129.567 35.6667],4.4,3.375,6.007,4.918,4.505,3.0,5.732,4.665,158.0,601.0
2015-06-10,Busan,SouthKorea,129.067,35.1667,[128.567 34.6667 129.567 35.6667],4.4,3.375,6.007,4.918,4.333,3.035,5.835,4.613,158.0,594.0
2015-06-11,Busan,SouthKorea,129.067,35.1667,[128.567 34.6667 129.567 35.6667],4.201,3.375,6.205,4.891,4.194,2.964,5.748,4.525,131.0,600.0
2015-06-12,Busan,SouthKorea,129.067,35.1667,[128.567 34.6667 129.567 35.6667],4.201,3.275,6.205,4.845,4.308,3.138,5.85,4.61,135.0,586.0
2015-06-13,Busan,SouthKorea,129.067,35.1667,[128.567 34.6667 129.567 35.6667],4.201,3.275,6.205,4.845,4.284,3.134,5.877,4.601,135.0,591.0
2015-06-14,Busan,SouthKorea,129.067,35.1667,[128.567 34.6667 129.567 35.6667],4.178,3.341,5.732,4.779,4.199,3.16,5.739,4.553,138.0,584.0
2015-06-15,Busan,SouthKorea,129.067,35.1667,[128.567 34.6667 129.567 35.6667],4.352,3.525,6.254,5.1,4.343,3.19,5.951,4.672,115.0,600.0
2015-06-16,Busan,SouthKorea,129.067,35.1667,[128.567 34.6667 129.567 35.6667],4.527,3.525,6.254,5.093,4.514,3.19,5.955,4.679,133.0,594.0
2015-06-17,Busan,SouthKorea,129.067,35.1667,[128.567 34.6667 129.567 35.6667],4.213,3.522,5.755,4.835,4.45,3.235,5.902,4.656,114.0,602.0
2015-06-18,Busan,SouthKorea,129.067,35.1667,[128.567 34.6667 129.567 35.6667],4.178,3.489,5.692,4.674,4.435,3.227,5.864,4.647,89.0,603.0
2015-06-19,Busan,SouthKorea,129.067,35.1667,[128.567 34.6667 129.567 35.6667],4.178,3.489,5.692,4.674,4.437,3.256,5.877,4.676,89.0,533.0